Wind_Speed
45 47 47 47 47 46 45 45 43 41 41 39 36 35 35 35 36 36 36 37 38 39 40 40 40 38 37 35 35 35 34 33 32 30 29 29 29 30 30 30 31 30
47 48 49 49 49 49 48 48 46 44 43 41 39 40 40 38 37 37 37 38 39 40 41 42 43 43 42 41 40 39 37 36 34 32 30 30 31 32 32 33 33 32
49 49 49 49 50 50 50 50 49 46 44 44 45 46 46 44 43 42 41 41 41 40 41 41 42 43 44 44 43 42 41 39 38 37 36 35 34 33 34 35 35 34
50 50 51 51 53 53 52 52 54 51 47 47 48 49 50 49 49 48 46 44 43 42 41 41 42 42 43 44 45 45 44 43 43 43 42 40 38 37 36 36 37 37
53 53 54 54 56 57 56 56 58 56 52 51 51 52 52 52 52 52 50 47 44 42 41 42 43 43 44 45 46 47 47 46 46 46 45 44 42 40 39 38 38 38
55 56 56 57 57 58 59 60 61 59 56 54 53 53 54 54 55 55 54 51 48 46 45 45 46 46 46 46 47 48 48 49 49 48 47 46 45 43 42 41 40 39
54 55 56 57 57 56 55 57 58 58 56 54 53 53 54 54 55 57 57 56 54 52 51 50 49 49 48 48 48 48 49 50 50 50 50 49 48 47 45 44 43 41
55 55 56 57 56 54 52 52 53 53 53 52 53 54 54 55 56 57 59 59 58 57 56 55 53 52 52 52 51 51 51 52 52 53 53 52 52 50 49 48 46 45
59 60 61 61 59 57 55 54 54 54 54 54 55 56 57 57 57 58 59 60 60 59 59 59 58 58 57 57 57 56 56 55 55 55 55 55 55 54 52 51 50 48
62 63 65 65 64 62 61 60 59 59 58 58 59 60 60 60 59 59 59 60 61 60 60 61 61 62 62 62 61 60 59 58 56 55 55 55 56 55 53 52 51 51
60 61 63 63 64 64 64 63 63 63 63 63 64 65 65 64 63 61 61 61 60 60 61 62 63 64 64 63 63 62 61 60 57 56 55 54 54 54 53 50 49 49
60 60 60 61 61 61 62 62 62 62 62 63 64 65 66 66 64 63 62 62 61 60 60 61 62 63 63 63 63 62 62 60 56 53 52 49 48 49 50 48 47 46
59 59 59 59 59 59 59 60 59 59 60 60 59 60 61 60 59 59 60 60 60 60 60 60 60 61 62 62 62 62 61 56 48 44 44 42 41 43 45 46 46 47
57 57 57 57 57 58 58 58 57 57 57 57 56 55 53 52 52 53 54 54 55 57 59 60 60 59 59 60 59 60 62 57 47 42 42 42 43 44 46 47 48 49
57 57 56 55 56 56 56 56 56 55 53 53 53 53 51 48 49 51 52 53 54 54 56 59 59 57 57 58 57 58 61 62 55 48 44 45 46 47 48 49 49 50
58 57 57 56 56 56 55 55 56 56 55 54 54 55 52 50 52 54 55 56 57 56 58 60 61 59 56 57 58 58 60 63 62 56 51 49 49 49 50 50 51 51
59 58 58 58 59 58 58 58 58 59 59 59 59 58 56 55 56 57 58 59 60 60 62 64 64 62 60 58 59 61 62 65 65 62 59 57 54 53 52 53 53 54
60 60 60 60 61 61 61 62 63 63 62 62 62 61 60 59 59 59 60 61 62 64 66 67 67 66 65 63 63 65 67 68 67 65 64 63 60 59 58 58 58 58
62 62 62 62 62 63 63 64 64 64 64 64 64 63 62 61 61 61 61 62 64 67 68 69 69 68 67 66 67 68 70 70 70 68 67 67 66 65 64 64 63 61
66 65 64 64 64 64 65 65 65 65 65 65 66 65 64 64 63 64 64 65 66 67 68 70 70 69 68 68 69 71 72 73 72 72 71 71 72 72 71 69 68 66
68 68 67 67 66 66 67 67 67 67 67 67 68 68 68 67 68 68 68 69 69 69 70 71 71 72 72 72 73 74 75 76 76 76 76 77 77 77 76 74 72 70
67 67 67 68 69 69 69 69 69 69 69 69 68 69 69 70 70 71 70 71 71 71 72 73 73 74 74 74 75 75 76 78 79 79 80 79 79 78 76 75 73 72
64 65 66 68 69 70 70 70 70 69 70 70 70 70 71 72 72 72 72 72 72 73 74 75 75 75 75 75 75 75 76 77 78 78 78 78 77 75 74 73 73 71
62 63 64 66 67 68 69 68 68 69 70 70 71 72 73 73 73 73 73 73 74 75 76 77 77 77 76 76 75 75 75 75 75 75 75 75 75 74 73 72 71 71
60 60 61 63 63 64 65 65 66 67 69 70 71 72 73 74 74 74 74 74 75 76 77 77 77 77 76 76 75 74 74 73 73 73 73 74 74 73 72 71 70 70
60 60 60 61 61 61 61 62 64 65 66 67 68 70 71 72 72 72 72 73 73 74 75 75 75 74 73 73 72 72 72 71 71 71 71 72 72 71 71 70 70 70
Wind_Direction
271 273 274 274 275 276 275 274 274 274 274 274 276 279 282 282 280 278 275 272 269 266 265 266 267 268 270 272 276 279 283 286 285 283 283 283 282 280 276 273 271 270
269 270 273 274 275 275 274 274 273 273 273 272 272 276 280 280 280 279 278 276 274 271 269 268 267 268 269 271 273 276 279 282 283 282 283 284 284 283 281 278 274 272
268 269 270 272 274 274 273 272 271 269 270 270 270 272 275 277 277 277 277 278 276 275 274 273 272 271 270 269 271 273 274 277 278 279 281 283 284 283 283 281 278 274
265 266 267 269 270 271 272 272 271 268 267 269 270 271 272 274 275 275 276 277 276 275 274 274 274 273 272 270 270 270 272 273 275 276 278 280 281 281 281 280 280 277
264 264 265 266 266 267 268 270 271 271 269 269 270 272 272 272 273 274 274 275 273 271 271 272 272 272 272 272 271 271 271 272 273 274 276 278 279 279 279 278 278 278
262 262 263 264 264 265 266 267 270 272 272 272 272 272 272 272 272 272 272 272 271 270 270 270 271 271 271 272 273 273 272 272 272 273 274 276 277 278 278 277 276 276
260 260 261 262 263 264 266 267 269 271 273 275 275 274 273 272 272 272 272 272 272 272 272 272 271 271 271 271 272 273 273 273 273 273 273 274 275 277 277 275 275 274
258 258 259 261 263 264 265 266 268 270 272 273 273 273 272 272 271 272 272 273 273 274 274 274 274 274 273 272 273 273 274 274 273 273 273 273 274 274 274 273 273 272
258 258 260 261 263 263 264 264 265 266 269 270 269 269 269 269 269 269 270 271 272 273 274 275 275 274 274 274 274 274 275 275 274 273 272 272 272 272 272 272 271 270
261 260 261 261 262 262 262 262 262 264 266 268 269 269 269 270 270 270 270 271 272 272 272 272 272 272 273 274 274 274 274 273 273 273 272 272 272 272 272 271 270 268
263 262 261 261 262 262 263 263 263 264 265 266 268 269 270 270 271 272 273 274 274 274 273 272 272 272 272 273 273 273 273 273 272 272 273 273 272 271 269 269 269 269
261 261 261 261 261 261 262 263 263 264 265 266 267 270 271 271 272 273 273 273 274 274 274 273 272 273 273 273 274 273 273 273 274 273 272 270 270 269 268 267 267 268
260 259 259 260 260 260 260 261 262 263 264 265 267 271 274 275 276 275 275 275 274 274 273 273 273 275 276 276 277 277 277 276 275 274 271 267 266 268 270 272 272 270
258 258 258 259 260 260 259 260 261 263 264 265 267 269 273 277 278 277 277 277 276 276 276 276 276 276 277 278 279 281 283 284 283 281 276 271 269 269 271 274 276 276
257 256 257 257 258 259 260 261 261 261 262 265 267 268 269 272 273 273 273 273 274 275 275 275 275 276 277 278 280 281 283 285 287 286 282 277 275 273 273 274 277 278
256 256 256 256 256 257 259 260 260 260 260 262 264 264 264 264 266 267 269 270 272 273 272 272 273 275 276 276 277 278 278 281 286 287 284 281 279 277 277 277 279 279
256 256 255 255 256 257 257 258 258 258 260 261 261 261 261 261 262 264 265 267 269 270 270 271 273 274 274 273 273 274 275 278 282 284 284 284 284 282 282 282 282 281
255 255 255 254 255 256 256 257 257 258 259 260 260 260 261 261 261 261 262 263 265 266 268 269 271 272 273 272 271 272 274 277 280 281 282 284 285 285 285 284 283 283
255 254 254 254 254 255 255 256 257 257 258 259 259 259 259 260 260 260 260 261 262 263 265 266 268 270 271 272 272 273 274 276 278 279 280 282 284 285 285 284 283 282
257 255 254 254 254 254 255 255 256 257 258 259 260 260 259 259 259 259 260 261 262 262 263 264 265 266 268 270 272 274 275 276 277 278 279 281 282 284 284 283 283 282
259 258 256 255 255 254 254 255 256 257 258 259 260 260 261 261 261 261 261 262 263 263 263 264 264 265 266 267 269 271 272 274 275 276 277 279 280 281 282 281 281 281
261 260 260 258 257 255 254 254 255 256 257 258 259 260 261 261 261 262 262 263 264 265 265 266 266 266 267 267 268 268 269 270 272 273 275 276 277 278 278 278 278 278
263 262 262 260 259 258 257 256 256 256 257 258 258 259 260 261 261 262 263 264 265 265 266 266 267 267 268 268 268 268 269 269 271 272 273 274 275 275 276 276 275 276
261 261 260 260 260 260 260 259 258 258 258 258 258 258 259 260 261 262 263 263 264 265 265 266 266 267 268 268 268 269 269 269 270 271 272 273 273 274 274 273 273 274
261 260 259 259 259 259 259 259 259 258 258 258 258 258 258 259 260 261 262 262 263 264 264 265 266 266 267 268 268 268 269 269 269 269 270 271 272 272 273 272 272 273
263 261 260 260 259 259 258 258 258 258 257 257 258 258 258 259 259 260 261 261 262 263 264 265 265 266 266 267 267 268 268 268 268 268 269 269 270 270 271 271 271 272
Height
10572 10570 10568 10568 10569 10570 10571 10572 10574 10575 10575 10575 10575 10575 10576 10576 10577 10577 10577 10578 10579 10580 10581 10582 10583 10584 10584 10585 10586 10587 10587 10588 10588 10588 10587 10587 10588 10588 10589 10589 10590 10590
10567 10566 10565 10564 10564 10565 10565 10565 10568 10570 10570 10571 10571 10570 10571 10571 10572 10572 10572 10573 10573 10574 10575 10576 10577 10579 10579 10580 10581 10582 10582 10583 10584 10584 10584 10583 10583 10584 10584 10584 10585 10585
10562 10562 10561 10560 10559 10559 10559 10558 10559 10564 10566 10566 10566 10565 10566 10566 10566 10567 10567 10567 10568 10568 10569 10570 10571 10573 10574 10574 10575 10576 10576 10577 10578 10579 10579 10579 10579 10579 10579 10579 10580 10580
10557 10557 10556 10556 10554 10553 10553 10550 10550 10556 10561 10561 10560 10560 10560 10560 10560 10561 10562 10562 10563 10563 10564 10564 10565 10566 10567 10568 10569 10569 10570 10571 10572 10573 10573 10574 10574 10574 10575 10575 10575 10575
10551 10551 10550 10551 10549 10547 10548 10545 10542 10547 10554 10556 10555 10555 10554 10555 10555 10556 10556 10557 10558 10558 10558 10559 10559 10559 10560 10561 10562 10563 10564 10565 10566 10567 10567 10568 10568 10569 10569 10570 10570 10570
10544 10544 10544 10544 10544 10542 10542 10540 10538 10540 10545 10548 10549 10549 10549 10550 10550 10550 10550 10551 10552 10552 10553 10553 10553 10553 10554 10555 10556 10556 10557 10558 10559 10560 10561 10562 10562 10563 10563 10564 10565 10565
10538 10539 10539 10538 10538 10538 10537 10535 10533 10534 10537 10540 10541 10542 10543 10543 10543 10543 10543 10544 10545 10546 10546 10546 10546 10548 10548 10549 10549 10550 10551 10552 10553 10554 10554 10555 10555 10556 10557 10558 10559 10559
10533 10533 10533 10532 10532 10532 10532 10530 10528 10528 10531 10533 10533 10534 10534 10536 10536 10536 10536 10537 10539 10540 10539 10539 10540 10541 10541 10542 10543 10543 10544 10545 10546 10546 10547 10548 10548 10549 10550 10551 10552 10553
10527 10526 10526 10526 10526 10526 10526 10526 10525 10524 10525 10527 10526 10526 10526 10527 10528 10528 10529 10530 10532 10533 10533 10533 10533 10533 10534 10535 10535 10536 10536 10537 10538 10539 10540 10540 10541 10542 10543 10543 10545 10546
10520 10519 10518 10518 10518 10518 10519 10520 10521 10521 10521 10520 10518 10517 10518 10518 10520 10521 10521 10522 10524 10525 10525 10525 10525 10525 10526 10527 10527 10528 10529 10530 10531 10532 10533 10534 10534 10535 10535 10536 10536 10538
10513 10512 10511 10511 10511 10511 10511 10512 10514 10515 10514 10513 10511 10509 10509 10510 10512 10514 10515 10515 10515 10516 10516 10516 10516 10516 10517 10518 10519 10519 10520 10522 10524 10526 10527 10528 10527 10526 10527 10528 10528 10529
10506 10505 10504 10504 10504 10505 10504 10504 10506 10507 10506 10506 10504 10502 10501 10503 10506 10507 10506 10507 10508 10508 10507 10506 10506 10507 10508 10510 10510 10511 10512 10514 10518 10520 10521 10522 10521 10518 10517 10519 10521 10523
10499 10498 10497 10497 10497 10498 10498 10498 10499 10499 10499 10499 10498 10497 10495 10496 10498 10498 10497 10498 10498 10499 10498 10498 10499 10500 10500 10501 10501 10501 10503 10507 10511 10514 10515 10517 10516 10513 10511 10511 10514 10515
10492 10491 10491 10491 10490 10490 10491 10492 10493 10493 10492 10491 10492 10492 10492 10491 10490 10489 10489 10489 10489 10490 10490 10490 10492 10493 10493 10494 10494 10493 10492 10495 10502 10506 10508 10510 10511 10509 10507 10506 10507 10508
10484 10484 10484 10484 10483 10483 10484 10485 10486 10486 10485 10485 10486 10487 10489 10489 10484 10482 10483 10483 10483 10484 10483 10480 10481 10485 10486 10487 10488 10487 10485 10485 10491 10497 10500 10502 10502 10503 10502 10501 10501 10501
10476 10477 10477 10476 10476 10476 10477 10477 10478 10478 10478 10480 10480 10480 10484 10485 10479 10476 10477 10477 10478 10479 10476 10472 10474 10477 10479 10480 10480 10482 10482 10480 10482 10486 10490 10493 10494 10495 10495 10494 10493 10493
10468 10469 10469 10469 10469 10469 10470 10470 10469 10470 10472 10473 10473 10473 10476 10478 10474 10472 10472 10471 10472 10472 10469 10467 10468 10470 10472 10474 10474 10475 10476 10475 10475 10477 10480 10483 10484 10485 10485 10485 10485 10484
10460 10461 10461 10462 10462 10462 10463 10462 10461 10462 10464 10464 10465 10466 10467 10468 10468 10467 10465 10465 10465 10465 10463 10462 10462 10463 10465 10467 10467 10468 10469 10469 10469 10471 10472 10474 10475 10476 10476 10476 10476 10476
10451 10452 10453 10453 10454 10455 10455 10454 10453 10453 10455 10456 10457 10459 10459 10459 10460 10459 10458 10458 10457 10457 10457 10457 10457 10457 10457 10458 10459 10460 10461 10461 10462 10463 10464 10465 10466 10466 10467 10467 10467 10467
10442 10443 10444 10445 10446 10446 10447 10447 10446 10445 10446 10447 10448 10450 10451 10452 10452 10451 10450 10450 10449 10449 10450 10450 10450 10450 10450 10451 10451 10452 10452 10453 10454 10455 10455 10456 10456 10456 10456 10457 10457 10457
10431 10433 10434 10435 10436 10437 10437 10438 10438 10438 10438 10439 10440 10441 10442 10443 10443 10442 10442 10441 10441 10441 10442 10443 10443 10443 10443 10444 10445 10445 10445 10446 10446 10447 10447 10447 10447 10446 10446 10446 10446 10447
10420 10422 10423 10424 10424 10425 10427 10428 10429 10429 10430 10430 10431 10432 10432 10432 10432 10432 10432 10432 10432 10432 10432 10433 10433 10434 10434 10435 10436 10437 10437 10438 10438 10438 10438 10438 10438 10437 10437 10437 10437 10437
10410 10410 10411 10411 10411 10413 10414 10417 10419 10420 10421 10422 10423 10423 10422 10422 10422 10422 10423 10423 10423 10423 10423 10423 10423 10424 10424 10425 10427 10427 10428 10429 10429 10429 10429 10429 10429 10428 10428 10428 10428 10429
10400 10400 10400 10400 10401 10401 10402 10405 10408 10410 10411 10413 10413 10413 10413 10413 10413 10413 10414 10415 10415 10414 10414 10414 10414 10414 10415 10416 10417 10418 10419 10419 10420 10420 10420 10420 10419 10419 10419 10420 10420 10420
10389 10391 10391 10391 10391 10391 10392 10394 10396 10398 10400 10402 10403 10403 10403 10403 10404 10405 10405 10406 10406 10405 10405 10405 10405 10406 10406 10407 10408 10409 10410 10410 10411 10411 10411 10411 10411 10411 10410 10411 10411 10411
10379 10381 10381 10381 10382 10383 10383 10384 10385 10387 10389 10391 10391 10392 10392 10393 10394 10395 10395 10396 10396 10395 10395 10395 10396 10396 10397 10398 10399 10399 10400 10401 10402 10402 10403 10403 10403 10403 10402 10402 10402 10402